Volver al catálogo

HULIANWANG DIGUI-182

ActivoCienciaLEO
NORAD 100207·PAYLOAD·🇨🇳 China

Lanzado Aug 4, 2026 desde Wenchang Space Launch Site

Loading…

Próximos Pases (próximas 24 horas)

TLE

ActualizadoSource: Space-Track

Época: Sep 14, 2026, 08:54 UTC

1 A0207U 26176E   26257.37137232 -.00000092  00000-0  68844-4 0  9997
2 A0207  49.9873 245.9343 0000212   2.7201 357.3672 13.29327418  5488

Sigue HULIANWANG DIGUI-182 en tiempo real con AllMySat

Download on the App Store